Epoch 2006 Mar. 6.0 TT = JDT 2453800.5
T 2006 Mar. 7.90462 TT MPC
q 1.7776711 (2000.0) P Q
n 0.06488973 Peri. 15.35863 -0.93064444 -0.32413761
a 6.1331759 Node 144.24835 +0.29759669 -0.94046473
e 0.7101549 Incl. 16.89605 +0.21292521 -0.10227852
P 15.19
The orbital elements are published on M.P.E.C. 2006-D05.
The charts are made with StellaNavigator Ver.2.0 for Windows
(AstroArts / ASCII).
The magnitudes graphs are made with Comet for Windows.
Copyright(C) Seiichi Yoshida (comet@aerith.net). All rights reserved.